Location: Eexterzandvoort
(53.0303°N, 6.7884°E)
Time: 05:13:43
(UTC+00:00)

CENTAUR R/B - Pass Details

Date: 19 May 2025
Orbit: 645 x 1537 km, 63.4° (Epoch: 14 June)

Event Time Altitude Azimuth Distance (km) Brightness Sun altitude
Rises 21:21:20 0° 303° (WNW) 3,880 6.9 -11.9°
Reaches altitude 10° 21:23:55 10° 309° (NW) 3,046 6.3 -12.1°
Maximum altitude 21:31:11 50° 24° (NNE) 1,640 3.9 -12.6°
Drops below altitude 10° 21:39:50 10° 98° (E) 3,607 5.1 -13.2°
Sets 21:43:08 0° 104° (ESE) 4,646 5.7 -13.5°
